| time (UTC) | temp F | wind direction | speed MPH | gust MPH | rain 1hr in | rain 24hr in | rain mn in | humidity % | barometer mb |
| 20260510015555 | 73 | 17 | 2.0 | 4.0 | 0.00 | 0.00 | 0.00 | 48 | 1002.5 |
| 20260510015019 | 73 | 355 | 0.0 | 0.0 | 0.00 | 0.00 | 0.00 | 48 | 1002.4 |
| 20260510014528 | 73 | 355 | 0.0 | 0.0 | 0.00 | 0.00 | 0.00 | 47 | 1002.4 |
| 20260510014032 | 74 | 355 | 0.0 | 2.0 | 0.00 | 0.00 | 0.00 | 45 | 1002.5 |
| 20260510013536 | 74 | 350 | 1.0 | 2.0 | 0.00 | 0.00 | 0.00 | 47 | 1002.6 |
| 20260510013008 | 74 | 351 | 0.0 | 3.0 | 0.00 | 0.00 | 0.00 | 42 | 1002.5 |
| 20260510012519 | 74 | 350 | 1.0 | 3.0 | 0.00 | 0.00 | 0.00 | 40 | 1002.5 |
| 20260510012029 | 74 | 314 | 1.0 | 2.0 | 0.00 | 0.00 | 0.00 | 46 | 1002.5 |
| 20260510011558 | 75 | 314 | 1.0 | 3.0 | 0.00 | 0.00 | 0.00 | 44 | 1002.5 |
| 20260510011004 | 75 | 312 | 1.0 | 3.0 | 0.00 | 0.00 | 0.00 | 43 | 1002.6 |
| 20260510010511 | 75 | 331 | 1.0 | 3.0 | 0.00 | 0.00 | 0.00 | 42 | 1002.6 |
| 20260510010049 | 75 | 331 | 0.0 | 2.0 | 0.00 | 0.00 | 0.00 | 44 | 1002.6 |
| 20260510005557 | 74 | 22 | 0.0 | 3.0 | 0.00 | 0.00 | 0.00 | 45 | 1002.7 |
| 20260510005005 | 74 | 22 | 0.0 | 3.0 | 0.00 | 0.00 | 0.00 | 45 | 1002.6 |
| 20260510004528 | 74 | 332 | 0.0 | 1.0 | 0.00 | 0.00 | 0.00 | 43 | 1002.7 |
| 20260510004037 | 74 | 332 | 0.0 | 1.0 | 0.00 | 0.00 | 0.00 | 43 | 1002.6 |
| 20260510003545 | 75 | 332 | 0.0 | 3.0 | 0.00 | 0.00 | 0.00 | 44 | 1002.7 |
| 20260510003021 | 76 | 332 | 1.0 | 4.0 | 0.00 | 0.00 | 0.00 | 41 | 1002.7 |
| 20260510002515 | 76 | 238 | 1.0 | 3.0 | 0.00 | 0.00 | 0.00 | 43 | 1002.9 |
| 20260510002031 | 76 | 331 | 0.0 | 3.0 | 0.00 | 0.00 | 0.00 | 41 | 1002.9 |
| 20260510001546 | 76 | 355 | 0.0 | 4.0 | 0.00 | 0.00 | 0.00 | 35 | 1002.8 |
| 20260510001054 | 76 | 355 | 2.0 | 4.0 | 0.00 | 0.00 | 0.00 | 36 | 1003.0 |
| 20260510000558 | 77 | 315 | 0.0 | 3.0 | 0.00 | 0.00 | 0.00 | 36 | 1003.0 |
| 20260510000032 | 76 | 300 | 1.0 | 5.0 | 0.00 | 0.00 | 0.00 | 36 | 1003.0 |
| 20260509235539 | 76 | 337 | 3.0 | 5.0 | 0.00 | 0.00 | 0.00 | 38 | 1003.2 |
| 20260509235051 | 76 | 276 | 3.0 | 4.0 | 0.00 | 0.00 | 0.00 | 36 | 1003.1 |
| 20260509234539 | 76 | 5 | 0.0 | 8.0 | 0.00 | 0.00 | 0.00 | 41 | 1003.1 |
| 20260509234039 | 76 | 355 | 1.0 | 8.0 | 0.00 | 0.00 | 0.00 | 35 | 1003.2 |
| 20260509233544 | 76 | 268 | 1.0 | 5.0 | 0.00 | 0.00 | 0.00 | 33 | 1003.3 |
| 20260509233010 | 76 | 279 | 1.0 | 8.0 | 0.00 | 0.00 | 0.00 | 32 | 1003.3 |
| 20260509232528 | 76 | 279 | 4.0 | 8.0 | 0.00 | 0.00 | 0.00 | 34 | 1003.3 |
| 20260509232031 | 76 | 316 | 3.0 | 7.0 | 0.00 | 0.00 | 0.00 | 35 | 1003.3 |
| 20260509231602 | 77 | 279 | 3.0 | 6.0 | 0.00 | 0.00 | 0.00 | 33 | 1003.3 |
| 20260509231003 | 76 | 306 | 2.0 | 8.0 | 0.00 | 0.00 | 0.00 | 40 | 1003.5 |
| 20260509230509 | 76 | 253 | 4.0 | 8.0 | 0.00 | 0.00 | 0.00 | 35 | 1003.6 |
| 20260509230043 | 76 | 327 | 1.0 | 6.0 | 0.00 | 0.00 | 0.00 | 36 | 1003.7 |
| 20260509225552 | 76 | 58 | 2.0 | 6.0 | 0.00 | 0.00 | 0.00 | 38 | 1003.8 |
| 20260509225055 | 77 | 5 | 1.0 | 5.0 | 0.00 | 0.00 | 0.00 | 38 | 1003.9 |
| 20260509224532 | 77 | 22 | 1.0 | 6.0 | 0.00 | 0.00 | 0.00 | 37 | 1003.9 |
| 20260509224039 | 77 | 326 | 2.0 | 7.0 | 0.00 | 0.00 | 0.00 | 40 | 1004.0 |
| 20260509223543 | 77 | 57 | 1.0 | 6.0 | 0.00 | 0.00 | 0.00 | 42 | 1004.1 |
| 20260509223101 | 76 | 326 | 2.0 | 9.0 | 0.00 | 0.00 | 0.00 | 37 | 1004.2 |
| 20260509222505 | 76 | 21 | 3.0 | 9.0 | 0.00 | 0.00 | 0.00 | 42 | 1004.4 |
| 20260509222021 | 76 | 39 | 0.0 | 8.0 | 0.00 | 0.00 | 0.00 | 40 | 1004.5 |
| 20260509221537 | 76 | 336 | 4.0 | 8.0 | 0.00 | 0.00 | 0.00 | 39 | 1004.6 |
| 20260509221042 | 76 | 22 | 4.0 | 9.0 | 0.00 | 0.00 | 0.00 | 42 | 1004.7 |
| 20260509220550 | 76 | 299 | 2.0 | 9.0 | 0.00 | 0.00 | 0.00 | 42 | 1004.9 |
| 20260509220025 | 76 | 69 | 3.0 | 9.0 | 0.00 | 0.00 | 0.00 | 46 | 1004.9 |
| 20260509215526 | 75 | 74 | 4.0 | 8.0 | 0.00 | 0.00 | 0.00 | 45 | 1005.0 |
| 20260509215033 | 75 | 281 | 2.0 | 8.0 | 0.00 | 0.00 | 0.00 | 44 | 1005.1 |
| 20260509214559 | 75 | 54 | 3.0 | 7.0 | 0.00 | 0.00 | 0.00 | 47 | 1005.1 |
| 20260509214012 | 75 | 174 | 3.0 | 6.0 | 0.00 | 0.00 | 0.00 | 47 | 1005.1 |
| 20260509213519 | 74 | 44 | 3.0 | 7.0 | 0.00 | 0.00 | 0.00 | 48 | 1005.2 |
| 20260509213043 | 74 | 62 | 2.0 | 7.0 | 0.00 | 0.00 | 0.00 | 48 | 1005.1 |
| 20260509212550 | 74 | 239 | 1.0 | 5.0 | 0.00 | 0.00 | 0.00 | 47 | 1005.2 |
| 20260509212059 | 73 | 22 | 2.0 | 5.0 | 0.00 | 0.00 | 0.00 | 47 | 1005.3 |
| 20260509211533 | 72 | 51 | 2.0 | 8.0 | 0.00 | 0.00 | 0.00 | 49 | 1005.5 |
| 20260509211041 | 72 | 347 | 2.0 | 8.0 | 0.00 | 0.00 | 0.00 | 49 | 1005.6 |
| 20260509210553 | 73 | 302 | 2.0 | 6.0 | 0.00 | 0.00 | 0.00 | 48 | 1005.5 |
| 20260509210023 | 72 | 335 | 3.0 | 6.0 | 0.00 | 0.00 | 0.00 | 50 | 1005.7 |
| 20260509205529 | 72 | 28 | 3.0 | 6.0 | 0.00 | 0.00 | 0.00 | 49 | 1005.7 |
| 20260509205037 | 72 | 192 | 2.0 | 7.0 | 0.00 | 0.00 | 0.00 | 52 | 1005.6 |
| 20260509204505 | 72 | 240 | 3.0 | 7.0 | 0.00 | 0.00 | 0.00 | 54 | 1005.6 |
| 20260509204011 | 71 | 269 | 1.0 | 5.0 | 0.00 | 0.00 | 0.00 | 55 | 1005.6 |
| 20260509203519 | 71 | 316 | 1.0 | 5.0 | 0.00 | 0.00 | 0.00 | 53 | 1005.8 |
| 20260509203104 | 72 | 67 | 2.0 | 8.0 | 0.00 | 0.00 | 0.00 | 53 | 1005.9 |
| 20260509202601 | 72 | 5 | 2.0 | 9.0 | 0.00 | 0.00 | 0.00 | 52 | 1005.9 |
| 20260509202010 | 72 | 26 | 5.0 | 9.0 | 0.00 | 0.00 | 0.00 | 56 | 1006.1 |
| 20260509201553 | 72 | 17 | 4.0 | 8.0 | 0.00 | 0.00 | 0.00 | 54 | 1006.0 |
| 20260509201046 | 72 | 81 | 3.0 | 8.0 | 0.00 | 0.00 | 0.00 | 54 | 1006.2 |
| 20260509200553 | 71 | 339 | 3.0 | 8.0 | 0.00 | 0.00 | 0.00 | 57 | 1006.2 |
| 20260509200024 | 71 | 49 | 3.0 | 10.0 | 0.00 | 0.00 | 0.00 | 56 | 1006.3 |
| 20260509195530 | 71 | 19 | 4.0 | 9.0 | 0.00 | 0.00 | 0.00 | 56 | 1006.4 |
| 20260509195028 | 70 | 341 | 3.0 | 8.0 | 0.00 | 0.00 | 0.00 | 56 | 1006.3 |
| 20260509194555 | 70 | 347 | 4.0 | 11.0 | 0.00 | 0.00 | 0.00 | 57 | 1006.6 |
| 20260509194103 | 70 | 280 | 2.0 | 8.0 | 0.00 | 0.00 | 0.00 | 59 | 1006.6 |
| 20260509193508 | 69 | 5 | 2.0 | 9.0 | 0.00 | 0.00 | 0.00 | 59 | 1006.7 |
| 20260509193059 | 69 | 50 | 4.0 | 9.0 | 0.00 | 0.00 | 0.00 | 59 | 1006.6 |
| 20260509192548 | 69 | 338 | 3.0 | 9.0 | 0.00 | 0.00 | 0.00 | 61 | 1006.7 |
| 20260509192053 | 69 | 349 | 4.0 | 9.0 | 0.00 | 0.00 | 0.00 | 61 | 1006.7 |
| 20260509191527 | 68 | 290 | 2.0 | 9.0 | 0.00 | 0.00 | 0.00 | 61 | 1006.7 |
| 20260509191035 | 68 | 256 | 5.0 | 9.0 | 0.00 | 0.00 | 0.00 | 61 | 1006.7 |
| 20260509190541 | 69 | 30 | 4.0 | 8.0 | 0.00 | 0.00 | 0.00 | 61 | 1006.9 |
| 20260509190003 | 68 | 36 | 3.0 | 6.0 | 0.00 | 0.00 | 0.00 | 63 | 1007.0 |
| 20260509185509 | 67 | 340 | 3.0 | 8.0 | 0.00 | 0.00 | 0.00 | 62 | 1007.1 |
| 20260509185014 | 67 | 305 | 4.0 | 8.0 | 0.00 | 0.00 | 0.00 | 63 | 1007.1 |
| 20260509184600 | 67 | 40 | 2.0 | 6.0 | 0.00 | 0.00 | 0.00 | 64 | 1007.2 |
| 20260509184054 | 66 | 61 | 1.0 | 6.0 | 0.00 | 0.00 | 0.00 | 68 | 1007.3 |
| 20260509183559 | 66 | 44 | 4.0 | 6.0 | 0.00 | 0.00 | 0.00 | 65 | 1007.3 |
| 20260509183036 | 65 | 54 | 3.0 | 6.0 | 0.00 | 0.00 | 0.00 | 65 | 1007.4 |
| 20260509182539 | 65 | 21 | 0.0 | 10.0 | 0.00 | 0.00 | 0.00 | 67 | 1007.3 |
| 20260509182046 | 65 | 306 | 4.0 | 10.0 | 0.00 | 0.00 | 0.00 | 67 | 1007.5 |
| 20260509181511 | 65 | 355 | 2.0 | 5.0 | 0.00 | 0.00 | 0.00 | 68 | 1007.5 |
| 20260509181031 | 64 | 35 | 2.0 | 5.0 | 0.00 | 0.00 | 0.00 | 68 | 1007.5 |
| 20260509180531 | 63 | 92 | 2.0 | 7.0 | 0.00 | 0.00 | 0.00 | 69 | 1007.5 |
| 20260509180056 | 63 | 340 | 4.0 | 7.0 | 0.00 | 0.00 | 0.00 | 71 | 1007.6 |
| 20260509175503 | 63 | 46 | 2.0 | 5.0 | 0.00 | 0.00 | 0.00 | 69 | 1007.5 |
| 20260509175019 | 63 | 5 | 3.0 | 6.0 | 0.00 | 0.00 | 0.00 | 72 | 1007.6 |
| 20260509174549 | 62 | 304 | 2.0 | 6.0 | 0.00 | 0.00 | 0.00 | 72 | 1007.6 |
| 20260509174054 | 62 | 86 | 2.0 | 6.0 | 0.00 | 0.00 | 0.00 | 73 | 1007.6 |
| 20260509173600 | 61 | 55 | 2.0 | 7.0 | 0.00 | 0.00 | 0.00 | 71 | 1007.6 |
| 20260509173042 | 61 | 56 | 3.0 | 7.0 | 0.00 | 0.00 | 0.00 | 72 | 1007.7 |
| 20260509172541 | 61 | 61 | 1.0 | 6.0 | 0.00 | 0.00 | 0.00 | 72 | 1007.7 |
| 20260509172047 | 61 | 31 | 2.0 | 5.0 | 0.00 | 0.00 | 0.00 | 74 | 1007.8 |
| 20260509171535 | 61 | 32 | 2.0 | 5.0 | 0.00 | 0.00 | 0.00 | 74 | 1007.8 |
| 20260509171028 | 61 | 311 | 3.0 | 5.0 | 0.00 | 0.00 | 0.00 | 73 | 1008.0 |
| 20260509170535 | 61 | 5 | 2.0 | 6.0 | 0.00 | 0.00 | 0.00 | 75 | 1008.1 |
| 20260509165504 | 60 | 111 | 2.0 | 5.0 | 0.00 | 0.00 | 0.00 | 73 | 1008.2 |
| 20260509165021 | 60 | 44 | 3.0 | 5.0 | 0.00 | 0.00 | 0.00 | 74 | 1008.2 |
| 20260509164548 | 59 | 35 | 1.0 | 5.0 | 0.00 | 0.00 | 0.00 | 74 | 1008.2 |
| 20260509164057 | 60 | 355 | 1.0 | 5.0 | 0.00 | 0.00 | 0.00 | 74 | 1008.2 |
| 20260509163605 | 59 | 40 | 3.0 | 4.0 | 0.00 | 0.00 | 0.00 | 77 | 1008.3 |
| 20260509163038 | 58 | 13 | 0.0 | 4.0 | 0.00 | 0.00 | 0.00 | 76 | 1008.6 |
| 20260509162546 | 59 | 49 | 2.0 | 8.0 | 0.00 | 0.00 | 0.00 | 76 | 1008.5 |
| 20260509162053 | 59 | 51 | 4.0 | 8.0 | 0.00 | 0.00 | 0.00 | 78 | 1008.6 |
| 20260509161530 | 59 | 55 | 2.0 | 5.0 | 0.00 | 0.00 | 0.00 | 77 | 1008.7 |
| 20260509161033 | 58 | 71 | 2.0 | 5.0 | 0.00 | 0.00 | 0.00 | 79 | 1008.7 |
| 20260509160538 | 58 | 294 | 2.0 | 5.0 | 0.00 | 0.00 | 0.00 | 77 | 1008.8 |
| 20260509160019 | 57 | 49 | 3.0 | 5.0 | 0.00 | 0.00 | 0.00 | 77 | 1008.8 |
| 20260509155520 | 57 | 36 | 2.0 | 4.0 | 0.00 | 0.00 | 0.00 | 76 | 1008.8 |
| 20260509155024 | 57 | 295 | 2.0 | 5.0 | 0.00 | 0.00 | 0.00 | 77 | 1008.9 |
| 20260509154552 | 57 | 304 | 1.0 | 5.0 | 0.00 | 0.00 | 0.00 | 78 | 1008.9 |
| 20260509154059 | 57 | 38 | 0.0 | 5.0 | 0.00 | 0.00 | 0.00 | 78 | 1008.9 |
| 20260509153603 | 56 | 40 | 1.0 | 4.0 | 0.00 | 0.00 | 0.00 | 79 | 1008.8 |
| 20260509153037 | 56 | 9 | 1.0 | 5.0 | 0.00 | 0.00 | 0.00 | 79 | 1008.9 |
| 20260509152543 | 56 | 288 | 1.0 | 4.0 | 0.00 | 0.00 | 0.00 | 80 | 1008.8 |
| 20260509152042 | 55 | 311 | 1.0 | 4.0 | 0.00 | 0.00 | 0.00 | 83 | 1008.9 |
| 20260509151504 | 55 | 32 | 1.0 | 4.0 | 0.00 | 0.00 | 0.00 | 86 | 1008.9 |
| 20260509151018 | 54 | 349 | 0.0 | 1.0 | 0.00 | 0.00 | 0.00 | 87 | 1009.0 |
| 20260509150526 | 54 | 347 | 0.0 | 3.0 | 0.00 | 0.00 | 0.00 | 88 | 1008.9 |
| 20260509150106 | 53 | 306 | 0.0 | 3.0 | 0.00 | 0.00 | 0.00 | 89 | 1008.9 |
| 20260509145600 | 53 | 311 | 1.0 | 3.0 | 0.00 | 0.00 | 0.00 | 89 | 1009.0 |
| 20260509145005 | 52 | 310 | 1.0 | 3.0 | 0.00 | 0.00 | 0.00 | 89 | 1009.1 |
| 20260509144625 | 52 | 310 | 0.0 | 1.0 | 0.00 | 0.00 | 0.00 | 89 | 1009.1 |
| 20260509144051 | 52 | 296 | 0.0 | 0.0 | 0.00 | 0.00 | 0.00 | 90 | 1009.1 |
| 20260509143555 | 51 | 246 | 0.0 | 0.0 | 0.00 | 0.00 | 0.00 | 90 | 1009.0 |
| 20260509143029 | 51 | 245 | 0.0 | 0.0 | 0.00 | 0.00 | 0.00 | 90 | 1009.0 |
| 20260509142538 | 51 | 245 | 0.0 | 0.0 | 0.00 | 0.00 | 0.00 | 90 | 1008.9 |
| 20260509142040 | 50 | 245 | 0.0 | 0.0 | 0.00 | 0.00 | 0.00 | 90 | 1008.8 |
| 20260509141519 | 49 | 245 | 0.0 | 0.0 | 0.00 | 0.00 | 0.00 | 89 | 1008.8 |
| 20260509141015 | 49 | 245 | 0.0 | 0.0 | 0.00 | 0.00 | 0.00 | 89 | 1008.8 |
| 20260509140518 | 49 | 245 | 0.0 | 0.0 | 0.00 | 0.00 | 0.00 | 89 | 1008.8 |
| 20260509140057 | 49 | 245 | 0.0 | 0.0 | 0.00 | 0.00 | 0.00 | 89 | 1008.9 |
| 20260509135600 | 49 | 245 | 0.0 | 0.0 | 0.00 | 0.00 | 0.00 | 89 | 1008.8 |
| 20260509135005 | 48 | 245 | 0.0 | 0.0 | 0.00 | 0.00 | 0.00 | 89 | 1008.8 |
| 20260509134534 | 48 | 245 | 0.0 | 0.0 | 0.00 | 0.00 | 0.00 | 89 | 1008.7 |
| 20260509134040 | 48 | 245 | 0.0 | 0.0 | 0.00 | 0.00 | 0.00 | 89 | 1008.7 |
| 20260509133544 | 48 | 245 | 0.0 | 0.0 | 0.00 | 0.00 | 0.00 | 88 | 1008.8 |
| 20260509133017 | 48 | 245 | 0.0 | 0.0 | 0.00 | 0.00 | 0.00 | 88 | 1008.7 |
| 20260509132519 | 48 | 245 | 0.0 | 0.0 | 0.00 | 0.00 | 0.00 | 88 | 1008.6 |
| 20260509132024 | 47 | 245 | 0.0 | 0.0 | 0.00 | 0.00 | 0.00 | 88 | 1008.6 |
| 20260509131553 | 47 | 245 | 0.0 | 0.0 | 0.00 | 0.00 | 0.00 | 88 | 1008.6 |
| 20260509131048 | 48 | 245 | 0.0 | 0.0 | 0.00 | 0.00 | 0.00 | 88 | 1008.6 |
| 20260509130559 | 48 | 245 | 0.0 | 0.0 | 0.00 | 0.00 | 0.00 | 88 | 1008.7 |
| 20260509130030 | 48 | 245 | 0.0 | 0.0 | 0.00 | 0.00 | 0.00 | 88 | 1008.7 |
| 20260509125533 | 48 | 245 | 0.0 | 0.0 | 0.00 | 0.00 | 0.00 | 88 | 1008.6 |
| 20260509125042 | 48 | 245 | 0.0 | 0.0 | 0.00 | 0.00 | 0.00 | 88 | 1008.7 |
| 20260509124522 | 48 | 245 | 0.0 | 0.0 | 0.00 | 0.00 | 0.00 | 88 | 1008.7 |
| 20260509124026 | 48 | 245 | 0.0 | 0.0 | 0.00 | 0.00 | 0.00 | 88 | 1008.6 |
| 20260509123530 | 48 | 245 | 0.0 | 0.0 | 0.00 | 0.00 | 0.00 | 88 | 1008.7 |
| 20260509123059 | 48 | 245 | 0.0 | 0.0 | 0.00 | 0.00 | 0.00 | 88 | 1008.7 |
| 20260509122600 | 48 | 245 | 0.0 | 0.0 | 0.00 | 0.00 | 0.00 | 88 | 1008.8 |
| 20260509122100 | 48 | 245 | 0.0 | 0.0 | 0.00 | 0.00 | 0.00 | 88 | 1008.9 |
| 20260509122003 | 48 | 245 | 0.0 | 0.0 | 0.00 | 0.00 | 0.00 | 87 | 1008.9 |
| 20260509121544 | 48 | 245 | 0.0 | 0.0 | 0.00 | 0.00 | 0.00 | 87 | 1008.9 |
| 20260509121048 | 48 | 245 | 0.0 | 0.0 | 0.00 | 0.00 | 0.00 | 87 | 1008.9 |
| 20260509120555 | 48 | 245 | 0.0 | 0.0 | 0.00 | 0.00 | 0.00 | 87 | 1009.0 |
| 20260509120026 | 48 | 245 | 0.0 | 0.0 | 0.00 | 0.00 | 0.00 | 87 | 1009.0 |
| 20260509115534 | 48 | 245 | 0.0 | 0.0 | 0.00 | 0.00 | 0.00 | 87 | 1009.0 |
| 20260509115042 | 48 | 245 | 0.0 | 0.0 | 0.00 | 0.00 | 0.00 | 87 | 1009.0 |
| 20260509114515 | 48 | 245 | 0.0 | 0.0 | 0.00 | 0.00 | 0.00 | 87 | 1008.9 |
| 20260509114021 | 48 | 245 | 0.0 | 0.0 | 0.00 | 0.00 | 0.00 | 87 | 1009.0 |
| 20260509113535 | 48 | 245 | 0.0 | 0.0 | 0.00 | 0.00 | 0.00 | 87 | 1009.1 |
| 20260509113046 | 48 | 245 | 0.0 | 0.0 | 0.00 | 0.00 | 0.00 | 87 | 1009.0 |
| 20260509112551 | 49 | 245 | 0.0 | 0.0 | 0.00 | 0.00 | 0.00 | 87 | 1009.1 |
| 20260509112103 | 49 | 245 | 0.0 | 0.0 | 0.00 | 0.00 | 0.00 | 87 | 1009.0 |
| 20260509111535 | 49 | 245 | 0.0 | 0.0 | 0.00 | 0.00 | 0.00 | 87 | 1009.2 |
| 20260509111036 | 49 | 245 | 0.0 | 0.0 | 0.00 | 0.00 | 0.00 | 87 | 1009.3 |
| 20260509110540 | 49 | 245 | 0.0 | 0.0 | 0.00 | 0.00 | 0.00 | 86 | 1009.3 |
| 20260509110007 | 49 | 245 | 0.0 | 0.0 | 0.00 | 0.00 | 0.00 | 86 | 1009.3 |
| 20260509105518 | 49 | 245 | 0.0 | 0.0 | 0.00 | 0.00 | 0.00 | 86 | 1009.4 |
| 20260509105024 | 49 | 245 | 0.0 | 0.0 | 0.00 | 0.00 | 0.00 | 86 | 1009.4 |
| 20260509104554 | 49 | 245 | 0.0 | 0.0 | 0.00 | 0.00 | 0.00 | 86 | 1009.6 |
| 20260509104056 | 49 | 245 | 0.0 | 0.0 | 0.00 | 0.00 | 0.00 | 86 | 1009.6 |
| 20260509103557 | 49 | 245 | 0.0 | 0.0 | 0.00 | 0.00 | 0.00 | 86 | 1009.6 |
| 20260509103034 | 49 | 245 | 0.0 | 0.0 | 0.00 | 0.00 | 0.00 | 86 | 1009.7 |
| 20260509102541 | 49 | 245 | 0.0 | 0.0 | 0.00 | 0.00 | 0.00 | 86 | 1009.6 |
| 20260509102043 | 50 | 245 | 0.0 | 0.0 | 0.00 | 0.00 | 0.00 | 86 | 1009.7 |
| 20260509101519 | 50 | 245 | 0.0 | 0.0 | 0.00 | 0.00 | 0.00 | 86 | 1009.6 |
| 20260509101023 | 50 | 245 | 0.0 | 0.0 | 0.00 | 0.00 | 0.00 | 86 | 1009.6 |
| 20260509100530 | 50 | 245 | 0.0 | 0.0 | 0.00 | 0.00 | 0.00 | 86 | 1009.7 |
| 20260509100104 | 50 | 245 | 0.0 | 0.0 | 0.00 | 0.00 | 0.00 | 86 | 1009.8 |
| 20260509095502 | 50 | 245 | 0.0 | 0.0 | 0.00 | 0.00 | 0.00 | 86 | 1009.7 |
| 20260509095008 | 50 | 245 | 0.0 | 0.0 | 0.00 | 0.00 | 0.00 | 85 | 1009.7 |
| 20260509094549 | 50 | 245 | 0.0 | 0.0 | 0.00 | 0.00 | 0.00 | 85 | 1009.7 |
| 20260509094049 | 50 | 245 | 0.0 | 0.0 | 0.00 | 0.00 | 0.00 | 85 | 1009.6 |
| 20260509093555 | 50 | 245 | 0.0 | 0.0 | 0.00 | 0.00 | 0.00 | 85 | 1009.7 |
| 20260509093024 | 50 | 245 | 0.0 | 0.0 | 0.00 | 0.00 | 0.00 | 85 | 1009.7 |
| 20260509092527 | 50 | 245 | 0.0 | 0.0 | 0.00 | 0.00 | 0.00 | 85 | 1009.8 |
| 20260509092033 | 51 | 245 | 0.0 | 0.0 | 0.00 | 0.00 | 0.00 | 85 | 1009.8 |
| 20260509091602 | 51 | 245 | 0.0 | 0.0 | 0.00 | 0.00 | 0.00 | 85 | 1009.9 |
| 20260509091006 | 51 | 245 | 0.0 | 0.0 | 0.00 | 0.00 | 0.00 | 84 | 1009.9 |
| 20260509090512 | 51 | 245 | 0.0 | 0.0 | 0.00 | 0.00 | 0.00 | 84 | 1010.0 |
| 20260509090048 | 51 | 245 | 0.0 | 0.0 | 0.00 | 0.00 | 0.00 | 84 | 1009.7 |
| 20260509085545 | 51 | 245 | 0.0 | 0.0 | 0.00 | 0.00 | 0.00 | 84 | 1009.9 |
| 20260509085051 | 51 | 245 | 0.0 | 0.0 | 0.00 | 0.00 | 0.00 | 83 | 1009.8 |
| 20260509084531 | 51 | 245 | 0.0 | 0.0 | 0.00 | 0.00 | 0.00 | 83 | 1009.9 |
| 20260509084030 | 51 | 245 | 0.0 | 0.0 | 0.00 | 0.00 | 0.00 | 83 | 1010.1 |
| 20260509083536 | 52 | 245 | 0.0 | 0.0 | 0.00 | 0.00 | 0.00 | 83 | 1010.0 |
| 20260509083001 | 52 | 245 | 0.0 | 0.0 | 0.00 | 0.00 | 0.00 | 83 | 1010.0 |
| 20260509082518 | 52 | 245 | 0.0 | 0.0 | 0.00 | 0.00 | 0.00 | 83 | 1010.1 |
| 20260509082004 | 52 | 245 | 0.0 | 0.0 | 0.00 | 0.00 | 0.00 | 82 | 1010.2 |
| 20260509081547 | 52 | 245 | 0.0 | 0.0 | 0.00 | 0.00 | 0.00 | 83 | 1010.2 |
| 20260509081052 | 52 | 245 | 0.0 | 0.0 | 0.00 | 0.00 | 0.00 | 82 | 1010.3 |
| 20260509080549 | 52 | 245 | 0.0 | 0.0 | 0.00 | 0.00 | 0.00 | 82 | 1010.2 |
| 20260509080022 | 52 | 245 | 0.0 | 0.0 | 0.00 | 0.00 | 0.00 | 82 | 1010.3 |
| 20260509075527 | 53 | 245 | 0.0 | 0.0 | 0.00 | 0.00 | 0.00 | 82 | 1010.3 |
| 20260509075030 | 53 | 245 | 0.0 | 0.0 | 0.00 | 0.00 | 0.00 | 82 | 1010.4 |
| 20260509074600 | 53 | 245 | 0.0 | 0.0 | 0.00 | 0.00 | 0.00 | 81 | 1010.3 |
| 20260509074001 | 53 | 245 | 0.0 | 4.0 | 0.00 | 0.00 | 0.00 | 81 | 1010.4 |
| 20260509073517 | 53 | 243 | 0.0 | 4.0 | 0.00 | 0.00 | 0.00 | 81 | 1010.4 |
| 20260509073041 | 53 | 263 | 0.0 | 0.0 | 0.00 | 0.00 | 0.00 | 81 | 1010.4 |
| 20260509072548 | 53 | 248 | 0.0 | 0.0 | 0.00 | 0.00 | 0.00 | 81 | 1010.4 |
| 20260509072054 | 53 | 248 | 0.0 | 2.0 | 0.00 | 0.00 | 0.00 | 80 | 1010.4 |
| 20260509071523 | 54 | 248 | 0.0 | 3.0 | 0.00 | 0.00 | 0.00 | 80 | 1010.4 |
| 20260509071031 | 54 | 248 | 1.0 | 4.0 | 0.00 | 0.00 | 0.00 | 80 | 1010.5 |
| 20260509070537 | 54 | 255 | 2.0 | 4.0 | 0.00 | 0.00 | 0.00 | 80 | 1010.4 |
| 20260509070104 | 54 | 264 | 1.0 | 3.0 | 0.00 | 0.00 | 0.00 | 80 | 1010.4 |
| 20260509065515 | 54 | 11 | 0.0 | 3.0 | 0.00 | 0.00 | 0.00 | 80 | 1010.4 |
| 20260509065020 | 54 | 11 | 0.0 | 3.0 | 0.00 | 0.00 | 0.00 | 79 | 1010.5 |
| 20260509064558 | 55 | 11 | 0.0 | 2.0 | 0.00 | 0.00 | 0.00 | 79 | 1010.4 |
| 20260509064049 | 55 | 11 | 1.0 | 2.0 | 0.00 | 0.00 | 0.00 | 78 | 1010.4 |
| 20260509063558 | 55 | 11 | 1.0 | 2.0 | 0.00 | 0.00 | 0.00 | 78 | 1010.4 |
| 20260509063040 | 55 | 11 | 0.0 | 3.0 | 0.00 | 0.00 | 0.00 | 78 | 1010.4 |
| 20260509062546 | 55 | 11 | 1.0 | 3.0 | 0.00 | 0.00 | 0.00 | 77 | 1010.4 |
| 20260509062055 | 56 | 11 | 1.0 | 3.0 | 0.00 | 0.00 | 0.00 | 76 | 1010.3 |
| 20260509061506 | 56 | 11 | 1.0 | 2.0 | 0.00 | 0.00 | 0.00 | 76 | 1010.3 |
| 20260509061016 | 56 | 11 | 1.0 | 2.0 | 0.00 | 0.00 | 0.00 | 76 | 1010.4 |
| 20260509060511 | 56 | 11 | 0.0 | 2.0 | 0.00 | 0.00 | 0.00 | 76 | 1010.3 |
| 20260509055554 | 57 | 11 | 0.0 | 2.0 | 0.00 | 0.00 | 0.00 | 75 | 1010.3 |
| 20260509055055 | 57 | 11 | 0.0 | 0.0 | 0.00 | 0.00 | 0.00 | 74 | 1010.3 |
| 20260509054532 | 57 | 11 | 0.0 | 0.0 | 0.00 | 0.00 | 0.00 | 74 | 1010.4 |
| 20260509054045 | 58 | 11 | 0.0 | 0.0 | 0.00 | 0.00 | 0.00 | 74 | 1010.4 |
| 20260509053545 | 58 | 11 | 0.0 | 0.0 | 0.00 | 0.00 | 0.00 | 73 | 1010.4 |
| 20260509053026 | 58 | 11 | 0.0 | 0.0 | 0.00 | 0.00 | 0.00 | 72 | 1010.3 |
| 20260509052526 | 58 | 11 | 0.0 | 0.0 | 0.00 | 0.00 | 0.00 | 72 | 1010.3 |
| 20260509052033 | 58 | 11 | 0.0 | 0.0 | 0.00 | 0.00 | 0.00 | 72 | 1010.2 |
| 20260509051540 | 59 | 11 | 0.0 | 2.0 | 0.00 | 0.00 | 0.00 | 71 | 1010.1 |
| 20260509051050 | 59 | 11 | 0.0 | 3.0 | 0.00 | 0.00 | 0.00 | 71 | 1010.2 |
| 20260509050556 | 59 | 11 | 1.0 | 3.0 | 0.00 | 0.00 | 0.00 | 71 | 1010.1 |
| 20260509050046 | 59 | 292 | 0.0 | 0.0 | 0.00 | 0.00 | 0.00 | 70 | 1010.1 |
| 20260509045540 | 59 | 292 | 0.0 | 0.0 | 0.00 | 0.00 | 0.00 | 70 | 1010.0 |
| 20260509045048 | 59 | 292 | 0.0 | 0.0 | 0.00 | 0.00 | 0.00 | 70 | 1010.0 |
| 20260509044532 | 59 | 292 | 0.0 | 1.0 | 0.00 | 0.00 | 0.00 | 69 | 1010.0 |
| 20260509044023 | 60 | 292 | 0.0 | 1.0 | 0.00 | 0.00 | 0.00 | 69 | 1009.9 |
| 20260509043529 | 60 | 292 | 0.0 | 0.0 | 0.00 | 0.00 | 0.00 | 69 | 1009.8 |
| 20260509043107 | 60 | 292 | 0.0 | 0.0 | 0.00 | 0.00 | 0.00 | 69 | 1009.7 |
| 20260509042555 | 60 | 292 | 0.0 | 0.0 | 0.00 | 0.00 | 0.00 | 69 | 1009.7 |
| 20260509042105 | 61 | 292 | 0.0 | 0.0 | 0.00 | 0.00 | 0.00 | 69 | 1009.7 |
| 20260509041538 | 61 | 292 | 0.0 | 0.0 | 0.00 | 0.00 | 0.00 | 68 | 1009.7 |
| 20260509041048 | 61 | 292 | 0.0 | 1.0 | 0.00 | 0.00 | 0.00 | 67 | 1009.6 |
| 20260509040548 | 62 | 292 | 0.0 | 3.0 | 0.00 | 0.00 | 0.00 | 66 | 1009.6 |
| 20260509040026 | 62 | 292 | 1.0 | 3.0 | 0.00 | 0.00 | 0.00 | 66 | 1009.4 |
| 20260509035534 | 62 | 291 | 0.0 | 2.0 | 0.00 | 0.00 | 0.00 | 66 | 1009.4 |
| 20260509035034 | 62 | 291 | 0.0 | 2.0 | 0.00 | 0.00 | 0.00 | 65 | 1009.4 |
| 20260509034548 | 62 | 291 | 0.0 | 3.0 | 0.00 | 0.00 | 0.00 | 65 | 1009.4 |
| 20260509034044 | 63 | 291 | 1.0 | 5.0 | 0.00 | 0.00 | 0.00 | 64 | 1009.4 |
| 20260509033554 | 63 | 306 | 2.0 | 5.0 | 0.00 | 0.00 | 0.00 | 64 | 1009.3 |
| 20260509033031 | 63 | 294 | 0.0 | 3.0 | 0.00 | 0.00 | 0.00 | 65 | 1009.2 |
| 20260509032541 | 63 | 288 | 1.0 | 4.0 | 0.00 | 0.00 | 0.00 | 64 | 1009.2 |
| 20260509032051 | 63 | 263 | 2.0 | 6.0 | 0.00 | 0.00 | 0.00 | 64 | 1009.2 |
| 20260509031526 | 63 | 255 | 1.0 | 4.0 | 0.00 | 0.00 | 0.00 | 64 | 1009.1 |
| 20260509031031 | 64 | 305 | 0.0 | 4.0 | 0.00 | 0.00 | 0.00 | 63 | 1009.1 |
| 20260509030541 | 64 | 273 | 1.0 | 4.0 | 0.00 | 0.00 | 0.00 | 63 | 1009.0 |
| 20260509030016 | 64 | 5 | 1.0 | 4.0 | 0.00 | 0.00 | 0.00 | 63 | 1009.0 |
| 20260509025511 | 64 | 42 | 1.0 | 4.0 | 0.00 | 0.00 | 0.00 | 64 | 1009.0 |
| 20260509025017 | 64 | 338 | 0.0 | 3.0 | 0.00 | 0.00 | 0.00 | 65 | 1008.9 |
| 20260509024541 | 64 | 346 | 0.0 | 2.0 | 0.00 | 0.00 | 0.00 | 63 | 1008.9 |
| 20260509024056 | 64 | 348 | 0.0 | 2.0 | 0.00 | 0.00 | 0.00 | 63 | 1008.9 |
| 20260509023601 | 64 | 355 | 0.0 | 3.0 | 0.00 | 0.00 | 0.00 | 63 | 1008.9 |
| 20260509023051 | 64 | 355 | 1.0 | 3.0 | 0.00 | 0.00 | 0.00 | 64 | 1008.9 |
| 20260509022545 | 64 | 320 | 1.0 | 3.0 | 0.00 | 0.00 | 0.00 | 64 | 1008.8 |
| 20260509022058 | 65 | 24 | 0.0 | 1.0 | 0.00 | 0.00 | 0.00 | 63 | 1008.7 |
| 20260509021532 | 65 | 24 | 0.0 | 1.0 | 0.00 | 0.00 | 0.00 | 63 | 1008.7 |
| 20260509021037 | 65 | 24 | 0.0 | 0.0 | 0.00 | 0.00 | 0.00 | 64 | 1008.8 |
| 20260509020549 | 65 | 24 | 0.0 | 0.0 | 0.00 | 0.00 | 0.00 | 64 | 1008.8 |
| 20260509020011 | 65 | 24 | 0.0 | 1.0 | 0.00 | 0.00 | 0.00 | 63 | 1008.8 |